User: anonymous   Login
Location: Unspecified
(0.0000°N, 0.0000°E)
Time: 00:09:25
(UTC+00:00)
Language:

CP4 - Orbit

View from above orbital plane
View from above orbital plane
View from above satellite
View from above satellite

Ground track
Ground track

The orbit data is extracted from the following two-line orbital elements,

1 31132U 07012Q   17265.83348342  .00000114  00000-0  33316-4 0  9992
2 31132  98.0400 218.4925 0080359 193.0409 166.8714 14.58869127554687
Epoch (UTC): 22 September 2017 20:00:12
Eccentricity: 0.0080359
inclination: 98.0400°
perigee height: 640 km
apogee height: 753 km
right ascension of ascending node: 218.4925°
argument of perigee: 193.0409°
revolutions per day: 14.58869127
mean anomaly at epoch: 166.8714°
orbit number at epoch: 55468

The dashed part of the orbit path shows where the satellite is in the earth's shadow,  

DLR